CanjetBLOCKVirtuelBLOCKQcBLOCKBLOCKBLOCKBLOCKBLOCKBLOCKBLOCKBLOCKBLOCKBLOCKBLOCKvolsBLOCKavecBLOCKFS-kACARS2020-11-26BLOCK09colon30am

volsBLOCKBLOCKBLOCKBLOCKBLOCKpilotesBLOCKBLOCKBLOCKBLOCKBLOCKBLOCKBLOCKBLOCKtypeBLOCKBLOCKdepBLOCKBLOCKarrBLOCKBLOCKBLOCKBLOCKBLOCKaltBLOCKBLOCKBLOCKBLOCKBLOCKgsBLOCKBLOCKBLOCKBLOCKstatut

CJA1891RochBLOCKJA320KPHX-CYUL0ft0ktsarrived












BLOCKAppuyerBLOCKsurBLOCKF5BLOCKpourBLOCKactualiserBLOCKBLOCKBLOCKMiseBLOCKaBLOCKjourcolonBLOCK09colon30colon24amCanjetBLOCKvirtuelBLOCKQC

Bienvenue chez Canjetvirtuel-Q

Publié par Michel Ayotte le 2013-06-14

 

Canjetvirtuel-Québec est une compagnie aérienne virtuelle qui a été fondée par 2 passionnés de la simulation de vol.

Elle est opérée avec les Boeing 737. Exceptionnelement et pour votre plaisir tous les autres versions de Boeing et Airbus sont autorisées.

Ces appareils pouvant faire des vols cargos ou des vols passagers, que ce soit au Canada, Europe, États-Unis, Mexique, Caraïbes et autres destinations mondiales.

Vous trouverez votre place comme pilote chez nous!



Avis

Aux fins de la simulation de vol seulement. CanjetVirtuel Québec n'est en aucun cas affilié avec n'importe quelle compagnie aérienne du monde réel. CanjetVirtuel Québec est un site à but non lucratif gérée par des amateurs de simulation de vol. Toutes les images sont la propriété exclusive de leurs propriétaires respectifs.
| propulsé par phpVMS, © 2013-2020.

Notice

For flight simulation purposes only. CanjetVirtuel Quebec is in no way affiliated with any real world airline. CanjetVirtuel Quebec is a non-profit site run by flight simulation enthusiasts. All images are the sole property of their respective owners.
| powered by phpVMS, © 2013-2020.

Affiliations

Vatsim

Les statistiques du site

Nombre de pilotes: 15
Total des vols effectués: 7187
Trajets disponibles: 684
Passagers transportés: 1888009
Total des heures de vol: 24206
Distance totale (NM): 9475077
Pilotes en ligne: 2

Nouvelles

Bienvenue chez Canjetvirtuel-Q
06/14/2013

METAR

CYHZ 261416Z 35003KT 1/2SM R23/3000V5000FT/D R14/1400V1800FT/N FG VV002 07/07 A3026 RMK FG8 SLP255

CYQB 261400Z 07018KT 12SM BKN008 OVC036 00/M01 A3012 RMK ST6SC2 SLP207

CYUL 261400Z 02012KT 6SM BR OVC011 01/01 A2997 RMK ST8 SLP150

CYYZ 261400Z 06002KT 3/4SM R06L/6000FT/N R05/P6000FT/U -DZ BR OVC003 08/08 A2979 RMK FG2ST6 SLP093